[[{"header":{"parameterUnit":"m.s-1","parameterCategory":1,"la1":30.2991,"la2":30.254,"lo1":-89.0895,"lo2":-89.0444,"dy":0.0017,"dx":0.0017,"nx":28,"ny":28,"refTime":"2025-11-20T03:00:00:Z","depth":0,"parameterNumber":2,"parameterNumberName":"U-component_of_WINDS"},"data":[0,0,0,0,0,0,0,0,0,0,0,0,0,0,0,0,0,0,0,0,0,0,0,0,0,0,0,0,0,0,0,0,0,0,0,0,0,0,0,0,0,0,0,0,0,0,0,0,0,0,0,0,0,0,0,0,0,0,-2.2343,-2.2343,0,-2.2361,-2.2361,-2.2361,-2.2353,-2.2353,-2.2352,-2.2352,-2.2369,-2.237,-2.2371,0,0,0,0,0,0,0,0,0,0,0,0,0,-2.2302,-2.2303,-2.2343,-2.2343,-2.2344,-2.2361,-2.2361,-2.2361,-2.2353,-2.2353,-2.2352,-2.2352,-2.2369,-2.237,-2.2371,0,0,0,0,0,0,0,0,0,0,0,0,0,-2.232,-2.2303,-2.2343,-2.2342,-2.2342,-2.2361,-2.2361,-2.2361,-2.2353,-2.2353,-2.2352,-2.2352,-2.2369,-2.237,-2.2371,-2.2393,0,0,-2.2375,-2.2376,0,0,0,0,0,0,0,0,-2.2319,-2.2322,-2.2342,-2.2342,-2.2342,-2.2354,-2.2353,-2.2372,-2.2354,-2.2349,-2.2352,-2.2351,-2.2365,-2.2366,-2.2371,-2.2393,-2.2394,-2.2376,-2.2376,-2.2377,-2.2377,0,0,0,0,0,0,0,-2.2318,-2.2321,-2.235,-2.2342,-2.2342,-2.234,-2.2342,-2.2357,-2.236,-2.2349,-2.2349,-2.2351,-2.2365,-2.237,-2.2372,-2.2394,-2.2376,-2.2377,-2.2377,-2.2378,-2.2435,-2.2436,0,0,0,0,0,0,-2.2317,-2.232,-2.2349,-2.2351,-2.2329,-2.2341,-2.2343,-2.2351,-2.236,-2.2361,-2.2352,-2.2351,-2.2368,-2.237,-2.2372,-2.2397,-2.2377,-2.2378,-2.2379,-2.2434,-2.2435,-2.2436,0,0,0,0,0,0,-2.2316,-2.2319,-2.2349,-2.2335,-2.2339,-2.2343,-2.2351,-2.2352,-2.2357,-2.2362,-2.2362,-2.2356,-2.2368,-2.237,-2.2388,-2.2398,-2.2379,-2.238,-2.2433,-2.2435,-2.2436,-2.2447,0,0,0,0,0,0,-2.2315,-2.2319,-2.2327,-2.2335,-2.2339,-2.2364,-2.2352,-2.2352,-2.2359,-2.2358,-2.2366,-2.2367,-2.2367,-2.2386,-2.2389,-2.2399,-2.2381,-2.2433,-2.2434,-2.2435,-2.2446,-2.2449,-2.2451,0,0,0,0,0,-2.2313,-2.233,-2.2328,-2.2331,-2.2349,-2.2364,-2.2367,-2.2367,-2.236,-2.2368,-2.2371,-2.2367,-2.2396,-2.2388,-2.2391,-2.2402,-2.2432,-2.2434,-2.2435,-2.2445,-2.2448,-2.2451,0,0,0,0,0,0,-2.2322,-2.2331,-2.2328,-2.2348,-2.2356,-2.2363,-2.2373,-2.237,-2.238,-2.2378,-2.2378,-2.238,-2.2398,-2.2402,-2.2392,-2.2423,-2.2413,-2.2416,-2.2419,-2.2422,-2.2425,-2.2423,-2.2382,0,0,0,0,0,-2.2326,-2.2338,-2.2345,-2.2361,-2.2365,-2.2369,-2.2375,-2.2375,-2.2383,-2.2386,-2.239,-2.2398,-2.2409,-2.2416,-2.2427,-2.2447,-2.2449,-2.2457,-2.2459,-2.2461,-2.2463,-2.2473,-2.2477,-2.2441,-2.2441,-2.2441,0,0,-2.2335,-2.2341,-2.2348,-2.2363,-2.2369,-2.2381,-2.2371,-2.2384,-2.2393,-2.2388,-2.2404,-2.2408,-2.2417,-2.2436,-2.2444,-2.2439,-2.2473,-2.2463,-2.2465,-2.2465,-2.2475,-2.2479,-2.2482,-2.2443,-2.2442,-2.2442,0,0,-2.2356,-2.2363,-2.2377,-2.2383,-2.2392,-2.2395,-2.2398,-2.2407,-2.2409,-2.2426,-2.2422,-2.2433,-2.2452,-2.2458,-2.2464,-2.2489,-2.2485,-2.2493,-2.2505,-2.2515,-2.2518,-2.2521,-2.2529,-2.2532,-2.2495,-2.2495,-2.2495,0,-2.2366,-2.2383,-2.2384,-2.2398,-2.2404,-2.2401,-2.2415,-2.2421,-2.2433,-2.2438,-2.2433,-2.2457,-2.2463,-2.2483,-2.2489,-2.2494,-2.2498,-2.2491,-2.2518,-2.252,-2.2522,-2.253,-2.2533,-2.2495,-2.2495,-2.2495,-2.2495,0,-2.2394,-2.2406,-2.2417,-2.2429,-2.2437,-2.2451,-2.2454,-2.2462,-2.2461,-2.2464,-2.2482,-2.2489,-2.25,-2.2506,-2.2505,-2.2526,-2.2522,-2.2518,-2.2507,-2.2527,-2.2534,-2.2537,-2.2497,-2.2496,-2.2496,-2.2496,0,0,-2.2419,-2.2433,-2.2436,-2.2442,-2.2453,-2.2462,-2.2476,-2.2488,-2.2494,-2.2504,-2.2515,-2.2532,-2.2528,-2.2534,-2.2535,-2.2544,-2.2563,-2.2538,-2.2538,-2.2542,-2.2586,-2.2588,-2.2592,-2.2561,-2.2562,-2.2562,-2.2585,0,-2.2441,-2.2465,-2.2467,-2.2488,-2.25,-2.2497,-2.251,-2.2517,-2.2521,-2.2531,-2.2535,-2.2547,-2.2541,-2.2545,-2.2555,-2.2559,-2.2572,-2.2557,-2.2571,-2.2571,-2.2567,-2.2595,-2.2598,-2.2618,-2.2588,-2.2588,-2.2588,0,-2.2468,-2.2478,-2.2501,-2.251,-2.2515,-2.2526,-2.2537,-2.2547,-2.2556,-2.2558,-2.2566,-2.2566,-2.258,-2.2571,-2.259,-2.2581,-2.2587,-2.259,-2.2591,-2.2591,-2.258,-2.2595,-2.2625,-2.2628,-2.2593,-2.2593,-2.2592,0,-2.2483,-2.2502,-2.2518,-2.2523,-2.2535,-2.2543,-2.2548,-2.2556,-2.2564,-2.2574,-2.2578,-2.259,-2.2596,-2.2605,-2.2608,-2.2601,-2.2627,-2.2618,-2.2629,-2.2629,-2.2633,-2.2632,-2.2663,-2.2639,-2.2639,-2.2639,-2.2639,0,-2.2506,-2.2519,-2.2525,-2.2535,-2.255,-2.2553,-2.2568,-2.2573,-2.2581,-2.2592,-2.2591,-2.2601,-2.2605,-2.2616,-2.2618,-2.2634,-2.2637,-2.2638,-2.2639,-2.2638,-2.2637,-2.264,-2.2638,-2.264,-2.264,-2.264,-2.264,0,-2.2524,-2.2529,-2.2546,-2.2556,-2.2559,-2.2569,-2.2578,-2.2587,-2.2592,-2.2605,-2.2608,-2.2615,-2.2627,-2.2632,-2.2647,-2.2649,-2.2666,-2.2666,-2.2663,-2.2663,-2.2672,-2.2671,-2.2705,-2.2709,-2.2684,-2.2684,-2.2685,0,-2.2537,-2.2548,-2.2559,-2.2566,-2.2572,-2.2583,-2.2591,-2.2594,-2.2602,-2.2614,-2.2622,-2.2635,-2.2645,-2.2665,-2.2671,-2.2683,-2.2682,-2.2693,-2.2684,-2.2682,-2.2681,-2.2679,-2.268,-2.2694,-2.2695,-2.2695,-2.2695,0,-2.256,-2.2562,-2.2572,-2.2584,-2.2593,-2.2603,-2.2612,-2.2618,-2.2623,-2.2632,-2.2645,-2.2653,-2.2669,-2.2681,-2.2693,-2.2699,-2.2698,-2.2698,-2.2701,-2.2699,-2.2697,-2.2697,-2.2666,-2.2697,-2.2697,-2.2697,-2.2697,-2.2696,-2.2575,-2.2584,-2.2594,-2.2606,-2.2613,-2.2622,-2.2631,-2.2637,-2.2648,-2.2661,-2.2663,-2.2677,-2.2687,-2.2703,-2.2709,-2.272,-2.2717,-2.2721,-2.2722,-2.2723,-2.2723,-2.2696,-2.2723,-2.2723,-2.2723,-2.2723,-2.2723,0,-2.2597,-2.2603,-2.2614,-2.2627,-2.2637,-2.2636,-2.2646,-2.2654,-2.2666,-2.2676,-2.2686,-2.2701,-2.2713,-2.2721,-2.2733,-2.2741,-2.274,-2.2744,-2.2742,-2.2744,-2.2726,-2.2721,-2.2744,-2.2744,-2.2744,-2.2744,-2.2744,-2.2744,-2.2609,-2.2624,-2.2628,-2.2647,-2.2653,-2.2667,-2.2673,-2.2681,-2.2688,-2.2705,-2.2715,-2.272,-2.2729,-2.2742,-2.2754,-2.2756,-2.276,-2.2763,-2.2765,-2.2747,-2.2745,-2.2743,-2.2739,-2.2764,-2.2764,-2.2781,-2.2782,-2.2782]},{"header":{"parameterUnit":"m.s-1","parameterCategory":1,"la1":30.2991,"la2":30.254,"lo1":-89.0895,"lo2":-89.0444,"dy":0.0017,"dx":0.0017,"nx":28,"ny":28,"refTime":"2025-11-20T03:00:00:Z","depth":0,"parameterNumber":3,"parameterNumberName":"V-component_of_WINDS"},"data":[0,0,0,0,0,0,0,0,0,0,0,0,0,0,0,0,0,0,0,0,0,0,0,0,0,0,0,0,0,0,0,0,0,0,0,0,0,0,0,0,0,0,0,0,0,0,0,0,0,0,0,0,0,0,0,0,0,0,2.9429,2.9429,0,2.9443,2.9443,2.9443,2.9432,2.9431,2.9431,2.943,2.9443,2.9444,2.9445,0,0,0,0,0,0,0,0,0,0,0,0,0,2.9393,2.9393,2.9429,2.9429,2.9429,2.9443,2.9443,2.9443,2.9432,2.9431,2.943,2.943,2.9443,2.9444,2.9445,0,0,0,0,0,0,0,0,0,0,0,0,0,2.9408,2.9394,2.9429,2.9425,2.9425,2.9443,2.9443,2.9443,2.9432,2.9431,2.943,2.943,2.9443,2.9444,2.9445,2.9467,0,0,2.9449,2.9449,0,0,0,0,0,0,0,0,2.9407,2.9409,2.9425,2.9425,2.9425,2.9435,2.9435,2.9451,2.9432,2.9429,2.943,2.9429,2.9441,2.9442,2.9446,2.9468,2.9468,2.9449,2.9449,2.945,2.945,0,0,0,0,0,0,0,2.9406,2.9408,2.9434,2.9426,2.9426,2.9423,2.9424,2.9438,2.9439,2.9429,2.9428,2.943,2.9441,2.9445,2.9447,2.9468,2.9449,2.945,2.945,2.9451,2.9512,2.9513,0,0,0,0,0,0,2.9405,2.9408,2.9434,2.9435,2.9414,2.9424,2.9426,2.9432,2.9439,2.9439,2.9431,2.943,2.9444,2.9445,2.9447,2.9476,2.945,2.9451,2.9452,2.9511,2.9512,2.9513,0,0,0,0,0,0,2.9404,2.9408,2.9433,2.9421,2.9424,2.9426,2.9433,2.9433,2.9438,2.944,2.944,2.9436,2.9443,2.9445,2.9463,2.9476,2.9452,2.9453,2.951,2.9511,2.9513,2.9531,0,0,0,0,0,0,2.9403,2.9407,2.9415,2.9421,2.9425,2.9449,2.9434,2.9434,2.944,2.9439,2.9444,2.9444,2.9443,2.9461,2.9464,2.9477,2.9454,2.9509,2.9511,2.9512,2.953,2.9533,2.9536,0,0,0,0,0,2.9402,2.9419,2.9416,2.9419,2.9435,2.945,2.9452,2.9449,2.9441,2.945,2.9452,2.9444,2.9474,2.9463,2.9466,2.948,2.9508,2.951,2.9512,2.9528,2.9532,2.9536,0,0,0,0,0,0,2.9413,2.942,2.9416,2.9435,2.9442,2.9448,2.9458,2.9454,2.9462,2.9461,2.9457,2.9459,2.9478,2.948,2.9468,2.9503,2.949,2.9492,2.9501,2.9505,2.9508,2.9507,2.9455,0,0,0,0,0,2.9418,2.9429,2.9434,2.9451,2.9455,2.9456,2.9462,2.946,2.9467,2.947,2.9473,2.9479,2.9491,2.9498,2.9508,2.953,2.9532,2.9541,2.9544,2.9547,2.955,2.9564,2.9569,2.952,2.952,2.952,0,0,2.9428,2.9433,2.944,2.9453,2.9458,2.9471,2.9458,2.9471,2.9481,2.9471,2.9489,2.9492,2.9499,2.952,2.953,2.9523,2.9564,2.955,2.9552,2.9553,2.9567,2.9572,2.9576,2.9521,2.9521,2.9521,0,0,2.9452,2.9456,2.9472,2.9478,2.9487,2.9488,2.9492,2.9499,2.9501,2.9519,2.9513,2.9524,2.9542,2.9549,2.9555,2.9586,2.958,2.9589,2.9606,2.9621,2.9625,2.9628,2.9641,2.9645,2.9591,2.9591,2.9591,0,2.9463,2.9482,2.948,2.9495,2.9502,2.9496,2.9512,2.9518,2.9529,2.9535,2.9527,2.9553,2.9557,2.9581,2.9589,2.9593,2.9598,2.9588,2.9624,2.9628,2.9631,2.9643,2.9648,2.9593,2.9592,2.9592,2.9592,0,2.9496,2.9509,2.9521,2.9534,2.9542,2.9557,2.9559,2.9568,2.9566,2.9569,2.9589,2.9594,2.9607,2.9612,2.9609,2.9636,2.9632,2.9625,2.9611,2.9637,2.9648,2.9653,2.9594,2.9594,2.9593,2.9593,0,0,2.9525,2.954,2.9544,2.9551,2.9562,2.9572,2.9589,2.9602,2.9611,2.9619,2.9634,2.9651,2.9645,2.9652,2.965,2.9663,2.969,2.9654,2.9654,2.9662,2.9723,2.9729,2.9735,2.9687,2.9688,2.9688,2.9723,0,2.9552,2.9581,2.9581,2.9608,2.9622,2.9617,2.9632,2.964,2.9644,2.9656,2.966,2.9673,2.9663,2.9668,2.968,2.9684,2.9703,2.9682,2.9701,2.9702,2.97,2.974,2.9746,2.9779,2.9727,2.9728,2.9728,0,2.9586,2.9598,2.9626,2.9638,2.9643,2.9656,2.9671,2.9682,2.9693,2.9694,2.9704,2.9701,2.9719,2.9706,2.9731,2.9717,2.9726,2.9729,2.973,2.9733,2.9717,2.9745,2.9789,2.9794,2.9735,2.9735,2.9734,0,2.9607,2.963,2.9651,2.9657,2.967,2.968,2.9686,2.9696,2.9705,2.9717,2.9723,2.9737,2.9745,2.9756,2.9758,2.9748,2.9785,2.9771,2.9788,2.9788,2.9796,2.9796,2.9843,2.98,2.98,2.98,2.98,0,2.9637,2.9655,2.9661,2.9674,2.9695,2.9696,2.9717,2.9722,2.9732,2.9746,2.9743,2.9756,2.9758,2.9773,2.9774,2.9797,2.98,2.9803,2.9803,2.9804,2.9803,2.9809,2.9807,2.9801,2.9801,2.98,2.98,0,2.9664,2.9668,2.9691,2.9703,2.9707,2.9722,2.9732,2.9745,2.9749,2.9768,2.9773,2.9779,2.9796,2.98,2.982,2.9821,2.9848,2.9846,2.9845,2.9845,2.9863,2.9862,2.9916,2.9925,2.9875,2.9875,2.9876,0,2.9683,2.9697,2.9711,2.9721,2.9728,2.9744,2.9754,2.9757,2.9768,2.9783,2.9794,2.9812,2.9826,2.9854,2.9861,2.9877,2.9876,2.9894,2.9878,2.9879,2.9878,2.9877,2.988,2.9897,2.9897,2.9898,2.9898,0,2.9717,2.9719,2.9734,2.9751,2.9763,2.9776,2.9788,2.9797,2.9801,2.9814,2.9832,2.9843,2.9865,2.9883,2.99,2.9907,2.9904,2.9903,2.9908,2.9909,2.9909,2.9911,2.9855,2.9902,2.9901,2.9901,2.9901,2.9901,2.9741,2.9755,2.9768,2.9785,2.9795,2.9808,2.9822,2.9829,2.9844,2.9863,2.9864,2.9885,2.9898,2.992,2.9928,2.9945,2.994,2.9946,2.9948,2.995,2.9953,2.9906,2.9948,2.9948,2.9948,2.9948,2.9948,0,2.9776,2.9786,2.9802,2.982,2.9835,2.9832,2.9846,2.9858,2.9877,2.9889,2.9904,2.9927,2.9945,2.9955,2.9973,2.9985,2.9984,2.999,2.9989,2.9992,2.9956,2.9951,2.999,2.999,2.999,2.999,2.999,2.999,2.9797,2.982,2.9825,2.9854,2.9863,2.9884,2.9893,2.9905,2.9916,2.9942,2.9957,2.9964,2.9976,2.9996,3.0013,3.0015,3.0023,3.0029,3.0031,2.9998,2.9994,2.9989,2.9984,3.0031,3.0031,3.0066,3.0066,3.0066]}]]